Simultaneous Nadir Overpasses (SNOs) Predictions

Prediction of SNOs between METOP-C and LANDSAT-8 Satellite Orbit:

Table of predicted SNOs for the next 14.0 days since TLE Epoch: 10/8/2022
Index Date (METOP-C) Time (METOP-C) Lat,Lon (METOP-C) SZA (METOP-C ) Date (LANDSAT-8) Time (LANDSAT-8) Lat,Lon (LANDSAT-8) SZA (LANDSAT-8 ) Distance(km) Time Diff (sec)
1 10/10/2022 02:53:25 81.11, 176.39 90.03 10/10/2022 02:53:52 81.11, 176.32 90.04 1.27 27
2 10/10/2022 03:44:05 -81.13, -15.71 89.89 10/10/2022 03:43:18 -81.13, -15.74 89.91 0.58 47
3 10/12/2022 22:27:50 81.10,-117.51 91.07 10/12/2022 22:28:04 81.10,-117.40 91.08 1.88 14
4 10/12/2022 23:18:30 -81.12, 50.47 88.84 10/12/2022 23:17:30 -81.12, 50.56 88.86 1.65 60
5 10/15/2022 17:11:47 -80.92, 137.25 88.46 10/15/2022 17:13:01 -80.81, 137.55 88.49 12.71 74
6 10/15/2022 18:02:15 81.10, -51.11 92.12 10/15/2022 18:02:16 81.10, -50.94 92.14 2.89 1
7 10/15/2022 18:52:55 -81.12, 116.94 87.77 10/15/2022 18:51:42 -81.12, 117.04 87.80 1.82 73
8 10/18/2022 12:46:01 -81.09,-152.32 86.89 10/18/2022 12:47:02 -81.09,-152.30 86.86 0.45 61
9 10/18/2022 13:36:39 81.11, 15.59 93.20 10/18/2022 13:36:27 81.11, 15.69 93.21 1.79 12
10 10/21/2022 08:20:25 -81.08, -86.01 85.88 10/21/2022 08:21:12 -81.09, -85.82 85.84 3.31 47



Historial Predications of SNOs between METOP-C and LANDSAT-8
